Back to catalog

T.MICROSAT-2

AliveScienceSSO
NORAD 68433·PAYLOAD·🇹🇼 Taiwan

Launched Mar 30, 2026 from Vandenberg Space Force Base

Loading…

Next Passes (next 24 hours)

TLE

FreshSource: Space-Track

Epoch: Sep 14, 2026, 07:50 UTC

1 68433U 26067T   26257.32703292  .00003371  00000-0  16850-3 0  9992
2 68433  97.4666 214.4198 0007404 105.4042 254.8010 15.18116591 25458

Track T.MICROSAT-2 in real time with AllMySat

Download on the App Store